Year,Month,Day,Hour,Minute,Value (Times are PST for temperature in C)
2007,09,19,00,00,7.80
2007,09,19,00,01,7.80
2007,09,19,00,02,7.80
2007,09,19,00,03,7.80
2007,09,19,00,04,7.90
2007,09,19,00,05,7.90
2007,09,19,00,06,7.90
2007,09,19,00,07,7.90
2007,09,19,00,08,7.90
2007,09,19,00,09,7.90
2007,09,19,00,10,7.90
2007,09,19,00,11,8.00
2007,09,19,00,12,8.00
2007,09,19,00,13,8.10
2007,09,19,00,14,8.10
2007,09,19,00,15,8.10
2007,09,19,00,16,8.20
2007,09,19,00,17,8.20
2007,09,19,00,18,8.30
2007,09,19,00,19,8.30
2007,09,19,00,20,8.30
2007,09,19,00,21,8.30
2007,09,19,00,22,8.30
2007,09,19,00,23,8.30
2007,09,19,00,24,8.40
2007,09,19,00,25,8.40
2007,09,19,00,26,8.40
2007,09,19,00,27,8.40
2007,09,19,00,28,8.50
2007,09,19,00,29,8.50
2007,09,19,00,30,8.50
2007,09,19,00,31,8.60
2007,09,19,00,32,8.60
2007,09,19,00,33,8.60
2007,09,19,00,34,8.60
2007,09,19,00,35,8.70
2007,09,19,00,36,8.70
2007,09,19,00,37,8.70
2007,09,19,00,38,8.80
2007,09,19,00,39,8.80
2007,09,19,00,40,8.90
2007,09,19,00,41,8.90
2007,09,19,00,42,8.90
2007,09,19,00,43,8.90
2007,09,19,00,44,9.00
2007,09,19,00,45,9.00
2007,09,19,00,46,9.00
2007,09,19,00,47,9.00
2007,09,19,00,48,9.00
2007,09,19,00,49,8.90
2007,09,19,00,50,8.90
2007,09,19,00,51,8.90
2007,09,19,00,52,8.80
2007,09,19,00,53,8.80
2007,09,19,00,54,8.80
2007,09,19,00,55,8.70
2007,09,19,00,56,8.70
2007,09,19,00,57,8.70
2007,09,19,00,58,8.70
2007,09,19,00,59,8.60
2007,09,19,01,00,8.60
2007,09,19,01,01,8.60
2007,09,19,01,02,8.50
2007,09,19,01,03,8.50
2007,09,19,01,04,8.50
2007,09,19,01,05,8.40
2007,09,19,01,06,8.40
2007,09,19,01,07,8.40
2007,09,19,01,08,8.30
2007,09,19,01,09,8.30
2007,09,19,01,10,8.30
2007,09,19,01,11,8.30
2007,09,19,01,12,8.30
2007,09,19,01,13,8.30
2007,09,19,01,14,8.30
2007,09,19,01,15,8.30
2007,09,19,01,16,8.30
2007,09,19,01,17,8.30
2007,09,19,01,18,8.30
2007,09,19,01,19,8.30
2007,09,19,01,20,8.30
2007,09,19,01,21,8.30
2007,09,19,01,22,8.30
2007,09,19,01,23,8.40
2007,09,19,01,24,8.40
2007,09,19,01,25,8.40
2007,09,19,01,26,8.50
2007,09,19,01,27,8.60
2007,09,19,01,28,8.60
2007,09,19,01,29,8.60
2007,09,19,01,30,8.70
2007,09,19,01,31,8.70
2007,09,19,01,32,8.70
2007,09,19,01,33,8.70
2007,09,19,01,34,8.80
2007,09,19,01,35,8.80
2007,09,19,01,36,8.80
2007,09,19,01,37,8.70
2007,09,19,01,38,8.70
2007,09,19,01,39,8.70
2007,09,19,01,40,8.70
2007,09,19,01,41,8.70
2007,09,19,01,42,8.70
2007,09,19,01,43,8.70
2007,09,19,01,44,8.60
2007,09,19,01,45,8.70
2007,09,19,01,46,8.70
2007,09,19,01,47,8.70
2007,09,19,01,48,8.70
2007,09,19,01,49,8.70
2007,09,19,01,50,8.70
2007,09,19,01,51,8.70
2007,09,19,01,52,8.70
2007,09,19,01,53,8.80
2007,09,19,01,54,8.80
2007,09,19,01,55,8.90
2007,09,19,01,56,9.00
2007,09,19,01,57,9.00
2007,09,19,01,58,9.10
2007,09,19,01,59,9.20
2007,09,19,02,00,9.20
2007,09,19,02,01,9.20
2007,09,19,02,02,9.20
2007,09,19,02,03,9.20
2007,09,19,02,04,9.20
2007,09,19,02,05,9.20
2007,09,19,02,06,9.20
2007,09,19,02,07,9.20
2007,09,19,02,08,9.30
2007,09,19,02,09,9.30
2007,09,19,02,10,9.30
2007,09,19,02,11,9.30
2007,09,19,02,12,9.40
2007,09,19,02,13,9.40
2007,09,19,02,14,9.40
2007,09,19,02,15,9.40
2007,09,19,02,16,9.40
2007,09,19,02,17,9.50
2007,09,19,02,18,9.50
2007,09,19,02,19,9.60
2007,09,19,02,20,9.60
2007,09,19,02,21,9.60
2007,09,19,02,22,9.60
2007,09,19,02,23,9.60
2007,09,19,02,24,9.60
2007,09,19,02,25,9.70
2007,09,19,02,26,9.70
2007,09,19,02,27,9.70
2007,09,19,02,28,9.70
2007,09,19,02,29,9.70
2007,09,19,02,30,9.70
2007,09,19,02,31,9.70
2007,09,19,02,32,9.70
2007,09,19,02,33,9.70
2007,09,19,02,34,9.70
2007,09,19,02,35,9.70
2007,09,19,02,36,9.70
2007,09,19,02,37,9.70
2007,09,19,02,38,9.70
2007,09,19,02,39,9.70
2007,09,19,02,40,9.70
2007,09,19,02,41,9.70
2007,09,19,02,42,9.70
2007,09,19,02,43,9.70
2007,09,19,02,44,9.70
2007,09,19,02,45,9.70
2007,09,19,02,46,9.70
2007,09,19,02,47,9.70
2007,09,19,02,48,9.70
2007,09,19,02,49,9.70
2007,09,19,02,50,9.70
2007,09,19,02,51,9.70
2007,09,19,02,52,9.70
2007,09,19,02,53,9.70
2007,09,19,02,54,9.70
2007,09,19,02,55,9.70
2007,09,19,02,56,9.70
2007,09,19,02,57,9.70
2007,09,19,02,58,9.70
2007,09,19,02,59,9.70
2007,09,19,03,00,9.70
2007,09,19,03,01,9.70
2007,09,19,03,02,9.70
2007,09,19,03,03,9.70
2007,09,19,03,04,9.70
2007,09,19,03,05,9.70
2007,09,19,03,06,9.70
2007,09,19,03,07,9.70
2007,09,19,03,08,9.80
2007,09,19,03,09,9.80
2007,09,19,03,10,9.80
2007,09,19,03,11,9.80
2007,09,19,03,12,9.90
2007,09,19,03,13,9.90
2007,09,19,03,14,9.90
2007,09,19,03,15,9.90
2007,09,19,03,16,9.90
2007,09,19,03,17,9.90
2007,09,19,03,18,9.90
2007,09,19,03,19,9.90
2007,09,19,03,20,10.00
2007,09,19,03,21,10.00
2007,09,19,03,22,10.00
2007,09,19,03,23,9.90
2007,09,19,03,24,9.90
2007,09,19,03,25,9.90
2007,09,19,03,26,9.90
2007,09,19,03,27,9.90
2007,09,19,03,28,9.90
2007,09,19,03,29,9.90
2007,09,19,03,30,9.80
2007,09,19,03,31,9.80
2007,09,19,03,32,9.80
2007,09,19,03,33,9.80
2007,09,19,03,34,9.80
2007,09,19,03,35,9.80
2007,09,19,03,36,9.80
2007,09,19,03,37,9.80
2007,09,19,03,38,9.80
2007,09,19,03,39,9.90
2007,09,19,03,40,9.90
2007,09,19,03,41,9.90
2007,09,19,03,42,9.90
2007,09,19,03,43,9.90
2007,09,19,03,44,9.90
2007,09,19,03,45,9.90
2007,09,19,03,46,9.90
2007,09,19,03,47,9.90
2007,09,19,03,48,9.90
2007,09,19,03,49,9.90
2007,09,19,03,50,9.90
2007,09,19,03,51,9.90
2007,09,19,03,52,9.90
2007,09,19,03,53,9.90
2007,09,19,03,54,9.80
2007,09,19,03,55,9.80
2007,09,19,03,56,9.80
2007,09,19,03,57,9.80
2007,09,19,03,58,9.80
2007,09,19,03,59,9.80
2007,09,19,04,00,9.80
2007,09,19,04,01,9.80
2007,09,19,04,02,9.80
2007,09,19,04,03,9.90
2007,09,19,04,04,9.90
2007,09,19,04,05,9.90
2007,09,19,04,06,9.90
2007,09,19,04,07,9.90
2007,09,19,04,08,9.90
2007,09,19,04,09,9.90
2007,09,19,04,10,9.90
2007,09,19,04,11,9.80
2007,09,19,04,12,9.80
2007,09,19,04,13,9.80
2007,09,19,04,14,9.80
2007,09,19,04,15,9.90
2007,09,19,04,16,9.90
2007,09,19,04,17,9.90
2007,09,19,04,18,9.90
2007,09,19,04,19,9.90
2007,09,19,04,20,10.00
2007,09,19,04,21,10.00
2007,09,19,04,22,10.00
2007,09,19,04,23,10.00
2007,09,19,04,24,10.00
2007,09,19,04,25,10.10
2007,09,19,04,26,10.10
2007,09,19,04,27,10.10
2007,09,19,04,28,10.10
2007,09,19,04,29,10.10
2007,09,19,04,30,10.10
2007,09,19,04,31,10.10
2007,09,19,04,32,10.10
2007,09,19,04,33,10.10
2007,09,19,04,34,10.10
2007,09,19,04,35,10.10
2007,09,19,04,36,10.10
2007,09,19,04,37,10.10
2007,09,19,04,38,10.10
2007,09,19,04,39,10.10
2007,09,19,04,40,10.10
2007,09,19,04,41,10.10
2007,09,19,04,42,10.10
2007,09,19,04,43,10.10
2007,09,19,04,44,10.10
2007,09,19,04,45,10.10
2007,09,19,04,46,10.00
2007,09,19,04,47,10.00
2007,09,19,04,48,10.00
2007,09,19,04,49,9.90
2007,09,19,04,50,9.90
2007,09,19,04,51,9.90
2007,09,19,04,52,9.90
2007,09,19,04,53,9.90
2007,09,19,04,54,9.90
2007,09,19,04,55,9.90
2007,09,19,04,56,9.90
2007,09,19,04,57,9.90
2007,09,19,04,58,9.90
2007,09,19,04,59,9.90
2007,09,19,05,00,9.90
2007,09,19,05,01,9.90
2007,09,19,05,02,9.90
2007,09,19,05,03,9.90
2007,09,19,05,04,9.90
2007,09,19,05,05,9.90
2007,09,19,05,06,9.90
2007,09,19,05,07,9.90
2007,09,19,05,08,9.90
2007,09,19,05,09,10.00
2007,09,19,05,10,10.00
2007,09,19,05,11,10.00
2007,09,19,05,12,10.00
2007,09,19,05,13,9.90
2007,09,19,05,14,9.90
2007,09,19,05,15,9.90
2007,09,19,05,16,9.90
2007,09,19,05,17,9.90
2007,09,19,05,18,9.90
2007,09,19,05,19,9.90
2007,09,19,05,20,9.90
2007,09,19,05,21,9.80
2007,09,19,05,22,9.80
2007,09,19,05,23,9.80
2007,09,19,05,24,9.80
2007,09,19,05,25,9.80
2007,09,19,05,26,9.90
2007,09,19,05,27,9.90
2007,09,19,05,28,9.90
2007,09,19,05,29,9.90
2007,09,19,05,30,9.90
2007,09,19,05,31,9.90
2007,09,19,05,32,9.90
2007,09,19,05,33,9.90
2007,09,19,05,34,9.90
2007,09,19,05,35,9.90
2007,09,19,05,36,9.90
2007,09,19,05,37,9.90
2007,09,19,05,38,9.80
2007,09,19,05,39,9.80
2007,09,19,05,40,9.90
2007,09,19,05,41,9.90
2007,09,19,05,42,9.90
2007,09,19,05,43,9.90
2007,09,19,05,44,9.90
2007,09,19,05,45,9.90
2007,09,19,05,46,9.90
2007,09,19,05,47,9.90
2007,09,19,05,48,10.00
2007,09,19,05,49,10.00
2007,09,19,05,50,10.00
2007,09,19,05,51,10.00
2007,09,19,05,52,10.00
2007,09,19,05,53,10.00
2007,09,19,05,54,10.00
2007,09,19,05,55,10.00
2007,09,19,05,56,10.00
2007,09,19,05,57,10.00
2007,09,19,05,58,10.00
2007,09,19,05,59,10.00
2007,09,19,06,00,10.00
2007,09,19,06,01,10.10
2007,09,19,06,02,10.10
2007,09,19,06,03,10.10
2007,09,19,06,04,10.20
2007,09,19,06,05,10.20
2007,09,19,06,06,10.30
2007,09,19,06,07,10.30
2007,09,19,06,08,10.40
2007,09,19,06,09,10.40
2007,09,19,06,10,10.40
2007,09,19,06,11,10.40
2007,09,19,06,12,10.40
2007,09,19,06,13,10.40
2007,09,19,06,14,10.40
2007,09,19,06,15,10.40
2007,09,19,06,16,10.40
2007,09,19,06,17,10.40
2007,09,19,06,18,10.40
2007,09,19,06,19,10.40
2007,09,19,06,20,10.40
2007,09,19,06,21,10.40
2007,09,19,06,22,10.40
2007,09,19,06,23,10.30
2007,09,19,06,24,10.30
2007,09,19,06,25,10.30
2007,09,19,06,26,10.30
2007,09,19,06,27,10.30
2007,09,19,06,28,10.30
2007,09,19,06,29,10.30
2007,09,19,06,30,10.30
2007,09,19,06,31,10.30
2007,09,19,06,32,10.30
2007,09,19,06,33,10.30
2007,09,19,06,34,10.40
2007,09,19,06,35,10.40
2007,09,19,06,36,10.40
2007,09,19,06,37,10.40
2007,09,19,06,38,10.40
2007,09,19,06,39,10.40
2007,09,19,06,40,10.40
2007,09,19,06,41,10.40
2007,09,19,06,42,10.40
2007,09,19,06,43,10.50
2007,09,19,06,44,10.50
2007,09,19,06,45,10.50
2007,09,19,06,46,10.60
2007,09,19,06,47,10.60
2007,09,19,06,48,10.60
2007,09,19,06,49,10.60
2007,09,19,06,50,10.60
2007,09,19,06,51,10.50
2007,09,19,06,52,10.60
2007,09,19,06,53,10.60
2007,09,19,06,54,10.50
2007,09,19,06,55,10.50
2007,09,19,06,56,10.50
2007,09,19,06,57,10.50
2007,09,19,06,58,10.50
2007,09,19,06,59,10.50
2007,09,19,07,00,10.50
2007,09,19,07,01,10.40
2007,09,19,07,02,10.40
2007,09,19,07,03,10.40
2007,09,19,07,04,10.40
2007,09,19,07,05,10.40
2007,09,19,07,06,10.50
2007,09,19,07,07,10.50
2007,09,19,07,08,10.50
2007,09,19,07,09,10.60
2007,09,19,07,10,10.60
2007,09,19,07,11,10.60
2007,09,19,07,12,10.70
2007,09,19,07,13,10.70
2007,09,19,07,14,10.70
2007,09,19,07,15,10.70
2007,09,19,07,16,10.70
2007,09,19,07,17,10.70
2007,09,19,07,18,10.70
2007,09,19,07,19,10.70
2007,09,19,07,20,10.70
2007,09,19,07,21,10.70
2007,09,19,07,22,10.70
2007,09,19,07,23,10.70
2007,09,19,07,24,10.70
2007,09,19,07,25,10.70
2007,09,19,07,26,10.70
2007,09,19,07,27,10.70
2007,09,19,07,28,10.80
2007,09,19,07,29,10.80
2007,09,19,07,30,10.90
2007,09,19,07,31,11.00
2007,09,19,07,32,11.00
2007,09,19,07,33,11.00
2007,09,19,07,34,11.10
2007,09,19,07,35,11.10
2007,09,19,07,36,11.20
2007,09,19,07,37,11.20
2007,09,19,07,38,11.30
2007,09,19,07,39,11.30
2007,09,19,07,40,11.30
2007,09,19,07,41,11.30
2007,09,19,07,42,11.30
2007,09,19,07,43,11.40
2007,09,19,07,44,11.40
2007,09,19,07,45,11.40
2007,09,19,07,46,11.40
2007,09,19,07,47,11.40
2007,09,19,07,48,11.40
2007,09,19,07,49,11.40
2007,09,19,07,50,11.40
2007,09,19,07,51,11.40
2007,09,19,07,52,11.40
2007,09,19,07,53,11.50
2007,09,19,07,54,11.50
2007,09,19,07,55,11.50
2007,09,19,07,56,11.60
2007,09,19,07,57,11.60
2007,09,19,07,58,11.60
2007,09,19,07,59,11.60
2007,09,19,08,00,11.60
2007,09,19,08,01,11.70
2007,09,19,08,02,11.70
2007,09,19,08,03,11.70
2007,09,19,08,04,11.70
2007,09,19,08,05,11.80
2007,09,19,08,06,11.80
2007,09,19,08,07,11.80
2007,09,19,08,08,11.80
2007,09,19,08,09,11.90
2007,09,19,08,10,11.90
2007,09,19,08,11,11.90
2007,09,19,08,12,12.00
2007,09,19,08,13,12.00
2007,09,19,08,14,12.10
2007,09,19,08,15,12.10
2007,09,19,08,16,12.10
2007,09,19,08,17,12.20
2007,09,19,08,18,12.20
2007,09,19,08,19,12.20
2007,09,19,08,20,12.20
2007,09,19,08,21,12.20
2007,09,19,08,22,12.20
2007,09,19,08,23,12.20
2007,09,19,08,24,12.20
2007,09,19,08,25,12.20
2007,09,19,08,26,12.30
2007,09,19,08,27,12.30
2007,09,19,08,28,12.40
2007,09,19,08,29,12.40
2007,09,19,08,30,12.40
2007,09,19,08,31,12.50
2007,09,19,08,32,12.50
2007,09,19,08,33,12.50
2007,09,19,08,34,12.50
2007,09,19,08,35,12.50
2007,09,19,08,36,12.60
2007,09,19,08,37,12.60
2007,09,19,08,38,12.60
2007,09,19,08,39,12.60
2007,09,19,08,40,12.60
2007,09,19,08,41,12.60
2007,09,19,08,42,12.60
2007,09,19,08,43,12.60
2007,09,19,08,44,12.60
2007,09,19,08,45,12.70
2007,09,19,08,46,12.70
2007,09,19,08,47,12.80
2007,09,19,08,48,12.80
2007,09,19,08,49,12.80
2007,09,19,08,50,12.80
2007,09,19,08,51,12.90
2007,09,19,08,52,12.90
2007,09,19,08,53,12.90
2007,09,19,08,54,12.90
2007,09,19,08,55,13.00
2007,09,19,08,56,13.00
2007,09,19,08,57,13.00
2007,09,19,08,58,13.00
2007,09,19,08,59,13.00
2007,09,19,09,00,13.10
2007,09,19,09,01,13.10
2007,09,19,09,02,13.10
2007,09,19,09,03,13.10
2007,09,19,09,04,13.20
2007,09,19,09,05,13.20
2007,09,19,09,06,13.20
2007,09,19,09,07,13.20
2007,09,19,09,08,13.30
2007,09,19,09,09,13.30
2007,09,19,09,10,13.30
2007,09,19,09,11,13.30
2007,09,19,09,12,13.30
2007,09,19,09,13,13.40
2007,09,19,09,14,13.30
2007,09,19,09,15,13.30
2007,09,19,09,16,13.30
2007,09,19,09,17,13.30
2007,09,19,09,18,13.30
2007,09,19,09,19,13.30
2007,09,19,09,20,13.30
2007,09,19,09,21,13.30
2007,09,19,09,22,13.30
2007,09,19,09,23,13.30
2007,09,19,09,24,13.30
2007,09,19,09,25,13.40
2007,09,19,09,26,13.40
2007,09,19,09,27,13.40
2007,09,19,09,28,13.40
2007,09,19,09,29,13.50
2007,09,19,09,30,13.50
2007,09,19,09,31,13.60
2007,09,19,09,32,13.60
2007,09,19,09,33,13.60
2007,09,19,09,34,13.60
2007,09,19,09,35,13.60
2007,09,19,09,36,13.60
2007,09,19,09,37,13.60
2007,09,19,09,38,13.60
2007,09,19,09,39,13.60
2007,09,19,09,40,13.70
2007,09,19,09,41,13.70
2007,09,19,09,42,13.70
2007,09,19,09,43,13.80
2007,09,19,09,44,13.80
2007,09,19,09,45,13.70
2007,09,19,09,46,13.70
2007,09,19,09,47,13.70
2007,09,19,09,48,13.70
2007,09,19,09,49,13.70
2007,09,19,09,50,13.70
2007,09,19,09,51,13.70
2007,09,19,09,52,13.80
2007,09,19,09,53,13.80
2007,09,19,09,54,13.80
2007,09,19,09,55,13.80
2007,09,19,09,56,13.80
2007,09,19,09,57,13.80
2007,09,19,09,58,13.90
2007,09,19,09,59,13.90
2007,09,19,10,00,14.00
2007,09,19,10,01,14.00
2007,09,19,10,02,14.00
2007,09,19,10,03,14.10
2007,09,19,10,04,14.10
2007,09,19,10,05,14.10
2007,09,19,10,06,14.10
2007,09,19,10,07,14.20
2007,09,19,10,08,14.20
2007,09,19,10,09,14.20
2007,09,19,10,10,14.20
2007,09,19,10,11,14.20
2007,09,19,10,12,14.20
2007,09,19,10,13,14.20
2007,09,19,10,14,14.20
2007,09,19,10,15,14.30
2007,09,19,10,16,14.30
2007,09,19,10,17,14.40
2007,09,19,10,18,14.40
2007,09,19,10,19,14.50
2007,09,19,10,20,14.50
2007,09,19,10,21,14.60
2007,09,19,10,22,14.60
2007,09,19,10,23,14.60
2007,09,19,10,24,14.70
2007,09,19,10,25,14.80
2007,09,19,10,26,14.80
2007,09,19,10,27,14.80
2007,09,19,10,28,14.80
2007,09,19,10,29,14.90
2007,09,19,10,30,14.90
2007,09,19,10,31,15.00
2007,09,19,10,32,15.00
2007,09,19,10,33,15.00
2007,09,19,10,34,15.00
2007,09,19,10,35,15.00
2007,09,19,10,36,15.00
2007,09,19,10,37,15.00
2007,09,19,10,38,15.00
2007,09,19,10,39,15.00
2007,09,19,10,40,15.00
2007,09,19,10,41,15.00
2007,09,19,10,42,15.00
2007,09,19,10,43,15.00
2007,09,19,10,44,15.00
2007,09,19,10,45,15.10
2007,09,19,10,46,15.20
2007,09,19,10,47,15.30
2007,09,19,10,48,15.40
2007,09,19,10,49,15.40
2007,09,19,10,50,15.40
2007,09,19,10,51,15.50
2007,09,19,10,52,15.50
2007,09,19,10,53,15.50
2007,09,19,10,54,15.60
2007,09,19,10,55,15.60
2007,09,19,10,56,15.60
2007,09,19,10,57,15.70
2007,09,19,10,58,15.70
2007,09,19,10,59,15.60
2007,09,19,11,00,15.70
2007,09,19,11,01,15.70
2007,09,19,11,02,15.80
2007,09,19,11,03,15.80
2007,09,19,11,04,15.90
2007,09,19,11,05,15.90
2007,09,19,11,06,16.00
2007,09,19,11,07,16.00
2007,09,19,11,08,16.00
2007,09,19,11,09,16.10
2007,09,19,11,10,16.10
2007,09,19,11,11,16.10
2007,09,19,11,12,16.10
2007,09,19,11,13,16.10
2007,09,19,11,14,16.20
2007,09,19,11,15,16.20
2007,09,19,11,16,16.20
2007,09,19,11,17,16.30
2007,09,19,11,18,16.30
2007,09,19,11,19,16.40
2007,09,19,11,20,16.40
2007,09,19,11,21,16.40
2007,09,19,11,22,16.40
2007,09,19,11,23,16.40
2007,09,19,11,24,16.50
2007,09,19,11,25,16.60
2007,09,19,11,26,16.60
2007,09,19,11,27,16.70
2007,09,19,11,28,16.80
2007,09,19,11,29,16.80
2007,09,19,11,30,16.90
2007,09,19,11,31,17.00
2007,09,19,11,32,17.10
2007,09,19,11,33,17.10
2007,09,19,11,34,17.20
2007,09,19,11,35,17.20
2007,09,19,11,36,17.30
2007,09,19,11,37,17.40
2007,09,19,11,38,17.40
2007,09,19,11,39,17.40
2007,09,19,11,40,17.40
2007,09,19,11,41,17.50
2007,09,19,11,42,17.50
2007,09,19,11,43,17.50
2007,09,19,11,44,17.50
2007,09,19,11,45,17.50
2007,09,19,11,46,17.50
2007,09,19,11,47,17.50
2007,09,19,11,48,17.50
2007,09,19,11,49,17.50
2007,09,19,11,50,17.50
2007,09,19,11,51,17.50
2007,09,19,11,52,17.50
2007,09,19,11,53,17.60
2007,09,19,11,54,17.60
2007,09,19,11,55,17.70
2007,09,19,11,56,17.70
2007,09,19,11,57,17.70
2007,09,19,11,58,17.70
2007,09,19,11,59,17.70
2007,09,19,12,00,17.80
2007,09,19,12,01,17.80
2007,09,19,12,02,17.80
2007,09,19,12,03,17.80
2007,09,19,12,04,17.80
2007,09,19,12,05,17.80
2007,09,19,12,06,17.80
2007,09,19,12,07,17.80
2007,09,19,12,08,17.80
2007,09,19,12,09,17.80
2007,09,19,12,10,17.90
2007,09,19,12,11,17.90
2007,09,19,12,12,17.90
2007,09,19,12,13,17.90
2007,09,19,12,14,17.90
2007,09,19,12,15,17.90
2007,09,19,12,16,17.90
2007,09,19,12,17,17.90
2007,09,19,12,18,17.90
2007,09,19,12,19,18.00
2007,09,19,12,20,17.90
2007,09,19,12,21,17.80
2007,09,19,12,22,17.80
2007,09,19,12,23,17.70
2007,09,19,12,24,17.70
2007,09,19,12,25,17.70
2007,09,19,12,26,17.70
2007,09,19,12,27,17.70
2007,09,19,12,28,17.70
2007,09,19,12,29,17.80
2007,09,19,12,30,17.80
2007,09,19,12,31,17.80
2007,09,19,12,32,17.90
2007,09,19,12,33,17.90
2007,09,19,12,34,18.00
2007,09,19,12,35,18.10
2007,09,19,12,36,18.20
2007,09,19,12,37,18.30
2007,09,19,12,38,18.30
2007,09,19,12,39,18.30
2007,09,19,12,40,18.30
2007,09,19,12,41,18.30
2007,09,19,12,42,18.30
2007,09,19,12,43,18.30
2007,09,19,12,44,18.30
2007,09,19,12,45,18.30
2007,09,19,12,46,18.30
2007,09,19,12,47,18.30
2007,09,19,12,48,18.30
2007,09,19,12,49,18.30
2007,09,19,12,50,18.30
2007,09,19,12,51,18.30
2007,09,19,12,52,18.30
2007,09,19,12,53,18.30
2007,09,19,12,54,18.30
2007,09,19,12,55,18.30
2007,09,19,12,56,18.30
2007,09,19,12,57,18.20
2007,09,19,12,58,18.20
2007,09,19,12,59,18.20
2007,09,19,13,00,18.30
2007,09,19,13,01,18.30
2007,09,19,13,02,18.30
2007,09,19,13,03,18.30
2007,09,19,13,04,18.40
2007,09,19,13,05,18.40
2007,09,19,13,06,18.40
2007,09,19,13,07,18.50
2007,09,19,13,08,18.60
2007,09,19,13,09,18.60
2007,09,19,13,10,18.70
2007,09,19,13,11,18.70
2007,09,19,13,12,18.70
2007,09,19,13,13,18.80
2007,09,19,13,14,18.80
2007,09,19,13,15,18.80
2007,09,19,13,16,18.80
2007,09,19,13,17,18.80
2007,09,19,13,18,18.80
2007,09,19,13,19,18.80
2007,09,19,13,20,18.80
2007,09,19,13,21,18.80
2007,09,19,13,22,18.80
2007,09,19,13,23,18.90
2007,09,19,13,24,18.80
2007,09,19,13,25,18.80
2007,09,19,13,26,18.80
2007,09,19,13,27,18.80
2007,09,19,13,28,18.90
2007,09,19,13,29,19.00
2007,09,19,13,30,19.10
2007,09,19,13,31,19.20
2007,09,19,13,32,19.30
2007,09,19,13,33,19.30
2007,09,19,13,34,19.40
2007,09,19,13,35,19.30
2007,09,19,13,36,19.30
2007,09,19,13,37,19.30
2007,09,19,13,38,19.30
2007,09,19,13,39,19.30
2007,09,19,13,40,19.30
2007,09,19,13,41,19.30
2007,09,19,13,42,19.30
2007,09,19,13,43,19.30
2007,09,19,13,44,19.40
2007,09,19,13,45,19.40
2007,09,19,13,46,19.40
2007,09,19,13,47,19.40
2007,09,19,13,48,19.40
2007,09,19,13,49,19.40
2007,09,19,13,50,19.40
2007,09,19,13,51,19.50
2007,09,19,13,52,19.50
2007,09,19,13,53,19.60
2007,09,19,13,54,19.60
2007,09,19,13,55,19.60
2007,09,19,13,56,19.70
2007,09,19,13,57,19.70
2007,09,19,13,58,19.70
2007,09,19,13,59,19.80
2007,09,19,14,00,19.90
2007,09,19,14,01,19.90
2007,09,19,14,02,19.90
2007,09,19,14,03,19.90
2007,09,19,14,04,19.90
2007,09,19,14,05,19.80
2007,09,19,14,06,19.80
2007,09,19,14,07,19.90
2007,09,19,14,08,19.90
2007,09,19,14,09,19.90
2007,09,19,14,10,19.80
2007,09,19,14,11,19.80
2007,09,19,14,12,19.70
2007,09,19,14,13,19.80
2007,09,19,14,14,19.80
2007,09,19,14,15,19.80
2007,09,19,14,16,19.70
2007,09,19,14,17,19.70
2007,09,19,14,18,19.70
2007,09,19,14,19,19.60
2007,09,19,14,20,19.70
2007,09,19,14,21,19.70
2007,09,19,14,22,19.70
2007,09,19,14,23,19.70
2007,09,19,14,24,19.80
2007,09,19,14,25,19.80
2007,09,19,14,26,19.80
2007,09,19,14,27,19.80
2007,09,19,14,28,19.90
2007,09,19,14,29,19.90
2007,09,19,14,30,19.90
2007,09,19,14,31,19.90
2007,09,19,14,32,20.00
2007,09,19,14,33,20.00
2007,09,19,14,34,20.00
2007,09,19,14,35,20.10
2007,09,19,14,36,20.00
2007,09,19,14,37,20.00
2007,09,19,14,38,20.00
2007,09,19,14,39,19.90
2007,09,19,14,40,20.00
2007,09,19,14,41,20.00
2007,09,19,14,42,20.00
2007,09,19,14,43,20.00
2007,09,19,14,44,20.00
2007,09,19,14,45,20.00
2007,09,19,14,46,20.00
2007,09,19,14,47,20.10
2007,09,19,14,48,20.10
2007,09,19,14,49,20.10
2007,09,19,14,50,20.20
2007,09,19,14,51,20.20
2007,09,19,14,52,20.30
2007,09,19,14,53,20.30
2007,09,19,14,54,20.30
2007,09,19,14,55,20.30
2007,09,19,14,56,20.30
2007,09,19,14,57,20.40
2007,09,19,14,58,20.40
2007,09,19,14,59,20.40
2007,09,19,15,00,20.40
2007,09,19,15,01,20.40
2007,09,19,15,02,20.40
2007,09,19,15,03,20.40
2007,09,19,15,04,20.40
2007,09,19,15,05,20.40
2007,09,19,15,06,20.30
2007,09,19,15,07,20.30
2007,09,19,15,08,20.30
2007,09,19,15,09,20.30
2007,09,19,15,10,20.30
2007,09,19,15,11,20.20
2007,09,19,15,12,20.20
2007,09,19,15,13,20.20
2007,09,19,15,14,20.10
2007,09,19,15,15,20.10
2007,09,19,15,16,20.10
2007,09,19,15,17,20.20
2007,09,19,15,18,20.10
2007,09,19,15,19,20.10
2007,09,19,15,20,20.20
2007,09,19,15,21,20.20
2007,09,19,15,22,20.30
2007,09,19,15,23,20.30
2007,09,19,15,24,20.40
2007,09,19,15,25,20.50
2007,09,19,15,26,20.60
2007,09,19,15,27,20.60
2007,09,19,15,28,20.60
2007,09,19,15,29,20.60
2007,09,19,15,30,20.60
2007,09,19,15,31,20.60
2007,09,19,15,32,20.60
2007,09,19,15,33,20.60
2007,09,19,15,34,20.60
2007,09,19,15,35,20.60
2007,09,19,15,36,20.60
2007,09,19,15,37,20.70
2007,09,19,15,38,20.70
2007,09,19,15,39,20.80
2007,09,19,15,40,20.80
2007,09,19,15,41,20.80
2007,09,19,15,42,20.70
2007,09,19,15,43,20.70
2007,09,19,15,44,20.70
2007,09,19,15,45,20.70
2007,09,19,15,46,20.80
2007,09,19,15,47,20.80
2007,09,19,15,48,20.80
2007,09,19,15,49,20.80
2007,09,19,15,50,20.80
2007,09,19,15,51,20.80
2007,09,19,15,52,20.80
2007,09,19,15,53,20.80
2007,09,19,15,54,20.70
2007,09,19,15,55,20.70
2007,09,19,15,56,20.60
2007,09,19,15,57,20.60
2007,09,19,15,58,20.60
2007,09,19,15,59,20.60
2007,09,19,16,00,20.60
2007,09,19,16,01,20.60
2007,09,19,16,02,20.60
2007,09,19,16,03,20.60
2007,09,19,16,04,20.60
2007,09,19,16,05,20.60
2007,09,19,16,06,20.60
2007,09,19,16,07,20.50
2007,09,19,16,08,20.40
2007,09,19,16,09,20.40
2007,09,19,16,10,20.40
2007,09,19,16,11,20.30
2007,09,19,16,12,20.20
2007,09,19,16,13,20.10
2007,09,19,16,14,20.10
2007,09,19,16,15,20.10
2007,09,19,16,16,20.00
2007,09,19,16,17,20.00
2007,09,19,16,18,20.10
2007,09,19,16,19,20.10
2007,09,19,16,20,20.10
2007,09,19,16,21,20.10
2007,09,19,16,22,20.00
2007,09,19,16,23,20.00
2007,09,19,16,24,20.00
2007,09,19,16,25,20.00
2007,09,19,16,26,20.10
2007,09,19,16,27,20.10
2007,09,19,16,28,20.10
2007,09,19,16,29,20.10
2007,09,19,16,30,20.10
2007,09,19,16,31,20.10
2007,09,19,16,32,20.10
2007,09,19,16,33,20.00
2007,09,19,16,34,20.00
2007,09,19,16,35,20.10
2007,09,19,16,36,20.00
2007,09,19,16,37,20.00
2007,09,19,16,38,20.10
2007,09,19,16,39,20.10
2007,09,19,16,40,20.10
2007,09,19,16,41,20.10
2007,09,19,16,42,20.10
2007,09,19,16,43,20.20
2007,09,19,16,44,20.20
2007,09,19,16,45,20.20
2007,09,19,16,46,20.20
2007,09,19,16,47,20.20
2007,09,19,16,48,20.20
2007,09,19,16,49,20.20
2007,09,19,16,50,20.20
2007,09,19,16,51,20.20
2007,09,19,16,52,20.20
2007,09,19,16,53,20.10
2007,09,19,16,54,20.10
2007,09,19,16,55,20.00
2007,09,19,16,56,20.00
2007,09,19,16,57,19.90
2007,09,19,16,58,19.90
2007,09,19,16,59,19.80
2007,09,19,17,00,19.70
2007,09,19,17,01,19.70
2007,09,19,17,02,19.70
2007,09,19,17,03,19.60
2007,09,19,17,04,19.60
2007,09,19,17,05,19.60
2007,09,19,17,06,19.70
2007,09,19,17,07,19.60
2007,09,19,17,08,19.60
2007,09,19,17,09,19.50
2007,09,19,17,10,19.50
2007,09,19,17,11,19.50
2007,09,19,17,12,19.40
2007,09,19,17,13,19.30
2007,09,19,17,14,19.20
2007,09,19,17,15,19.10
2007,09,19,17,16,19.00
2007,09,19,17,17,18.90
2007,09,19,17,18,18.70
2007,09,19,17,19,18.60
2007,09,19,17,20,18.50
2007,09,19,17,21,18.40
2007,09,19,17,22,18.20
2007,09,19,17,23,18.10
2007,09,19,17,24,18.00
2007,09,19,17,25,17.80
2007,09,19,17,26,17.80
2007,09,19,17,27,17.80
2007,09,19,17,28,17.70
2007,09,19,17,29,17.70
2007,09,19,17,30,17.60
2007,09,19,17,31,17.50
2007,09,19,17,32,17.40
2007,09,19,17,33,17.30